Weather Roundup
Issued by NWS Springfield, MO

Home | Current Version | Previous Version | Text Only | Print | Product List | Glossary On
Versions: 1 2 3 4 5 6 7 8 9 10 11 12 13 14 15 16 17 18 19 20 21 22 23 24 25 26 27 28 29 30 31 32 33 34 35 36 37 38 39 40 41 42 43 44 45 46 47 48 49 50
000
NZUS99 KSGF 221307
HRRSGF

HOURLY WEATHER
NATIONAL WEATHER SERVICE SPRINGFIELD MO
700 AM CST SAT NOV 22 2014

......SGF CWA......

CITY           SKY/WX    TMP DP  RH WIND       PRES   REMARKS
SPRINGFIELD    CLOUDY    50  45  83 S13       30.07S
JOPLIN         CLOUDY    56  50  80 S17       30.04S
WEST PLAINS    CLOUDY    45  42  89 S7        30.15F
ROLLA          PTCLDY    48  43  82 S14       30.07F
OSAGE BEACH    CLOUDY    48  43  81 SE8       30.06F
BRANSON        CLOUDY    54  46  76 S8        30.10F

......SURROUNDING SGF CWA......

CITY           SKY/WX    TMP DP  RH WIND       PRES   REMARKS
CHANUTE        CLOUDY    55  53  93 S14       30.00S
PARSONS        CLOUDY    55  53  93 S9        30.01S
COFFEYVILLE    CLOUDY    56  52  86 S14       30.02R
EMPORIA        FOG       48  48 100 S6        29.95F VSB 1/2
GROVE OK       CLOUDY    57  50  77 S10       30.07S
ROGERS AR      LGT RAIN  54  48  80 S9        30.09S
SILOAM SPRINGS CLOUDY    54  45  71 S10       30.11R
HARRISON AR    CLOUDY    53  48  83 S10       30.11F
NEAR YELLVILLE MOCLDY    45  39  81 CALM      30.13F

......KANSAS AND MISSOURI......

CITY           SKY/WX    TMP DP  RH WIND       PRES   REMARKS
KANSAS CTY INT DRZL/FOG  52  52 100 SW13      29.95F VSB 1/2
DOWNTOWN KC    CLOUDY    53  51  93 SW3       29.96F FOG
COLUMBIA       CLOUDY    51  45  79 S12       30.04F
SEDALIA        MOCLDY    52  46  80 S13       30.02S
ST JOSEPH      FOG       43  43 100 S3        29.95F VSB 1/2
ST LOUIS       MOCLDY    48  39  71 S7        30.10F
SPIRIT OF STL  MOCLDY    42  39  89 S3        30.09F
KIRKSVILLE     CLOUDY    49  47  93 S13       29.97F
WICHITA        FOG       44  44 100 S6        29.95S VSB 1/8
TOPEKA         FOG       43  42  97 SE5       29.95F VSB 3/4
OLATHE         CLOUDY    53  53 100 S13       29.96F FOG

......TENNESSEE......

CITY           SKY/WX    TMP DP  RH WIND       PRES   REMARKS
MEMPHIS        MOCLDY    53  44  71 S7        30.27R
NASHVILLE      MOCLDY    47  32  56 SE6       30.35F

......ARKANSAS.......

CITY           SKY/WX    TMP DP  RH WIND       PRES   REMARKS
FAYETTEVILLE   LGT RAIN  53  49  86 S15G21    30.09F
FT SMITH       CLOUDY    51  48  89 NE7       30.11F
LITTLE ROCK    CLOUDY    50  47  89 S6        30.20F FOG

......OKLAHOMA.......

CITY           SKY/WX    TMP DP  RH WIND       PRES   REMARKS
TULSA          CLOUDY    57  54  89 S12       30.03F
PONCA CITY     CLOUDY    59  58  96 S13G22    29.97S FOG
MCALESTER      LGT RAIN  56  53  90 S3        30.09R
OKLAHOMA CITY  TSTM      60  57  89 SE25G32   30.00R FOG

......IOWA............

CITY           SKY/WX    TMP DP  RH WIND       PRES   REMARKS
DES MOINES     DRZL/FOG  40  39  97 SW8       29.90F VSB 1/2 WCI  34
QUAD CITIES    CLOUDY    41  38  89 S9        29.97F FOG

......ILLINOIS........

CITY           SKY/WX    TMP DP  RH WIND       PRES   REMARKS
QUINCY         CLOUDY    47  42  83 S12       30.01F
CHICAGO        DRIZZLE   36  34  92 S10       30.03F FOG     WCI  28



USA.gov is the U.S. government's official web portal to all federal, state and local government web resources and services.